H1 CPF 2 NER 2023 11 24 9 328 01 glonass143 H2 2007501 9143 46805 2023 11 24 0 0 0 2023 11 27 23 45 0 900 1 1 0 0 0 1 H9 10 0 60272 0.00000 0 23839862.207 -8925257.157 1514557.866 10 0 60272 900.00000 0 23776292.553 -9057840.911 -1698576.899 10 0 60272 1800.00000 0 23345791.157 -9020555.480 -4878678.066 10 0 60272 2700.00000 0 22580174.626 -8767810.547 -7963896.576 10 0 60272 3600.00000 0 21521817.346 -8262166.682 -10894223.621 10 0 60272 4500.00000 0 20221815.789 -7476170.579 -13612663.967 10 0 60272 5400.00000 0 18737804.954 -6393773.575 -16066349.752 10 0 60272 6300.00000 0 17131519.457 -5011272.312 -18207572.546 10 0 60272 7200.00000 0 15466202.452 -3337730.662 -19994713.226 10 0 60272 8100.00000 0 13803971.731 -1394864.035 -21393051.535 10 0 60272 9000.00000 0 12203253.878 783610.109 -22375439.721 10 0 60272 9900.00000 0 10716394.159 3153129.204 -22922827.486 10 0 60272 10800.00000 0 9387542.083 5659902.430 -23024628.498 10 0 60272 11700.00000 0 8250900.725 8242920.663 -22678921.830 10 0 60272 12600.00000 0 7329412.339 10836276.313 -21892484.839 10 0 60272 13500.00000 0 6633934.369 13371697.020 -20680657.217 10 0 60272 14400.00000 0 6162939.242 15781188.208 -19067039.085 10 0 60272 15300.00000 0 5902749.345 17999674.993 -17083029.105 10 0 60272 16200.00000 0 5828296.083 19967533.921 -14767211.603 10 0 60272 17100.00000 0 5904369.979 21632909.570 -12164604.582 10 0 60272 18000.00000 0 6087308.085 22953719.929 -9325783.180 10 0 60272 18900.00000 0 6327046.694 23899267.470 -6305895.634 10 0 60272 19800.00000 0 6569451.904 24451389.237 -3163590.884 10 0 60272 20700.00000 0 6758828.972 24605098.580 40121.158 10 0 60272 21600.00000 0 6840503.870 24368692.440 3243054.363 10 0 60272 22500.00000 0 6763367.495 23763320.502 6383052.966 10 0 60272 23400.00000 0 6482274.623 22822035.040 9399196.321 10 0 60272 24300.00000 0 5960195.914 21588362.011 12232978.400 10 0 60272 25200.00000 0 5170031.768 20114453.825 14829439.211 10 0 60272 26100.00000 0 4096011.095 18458901.604 17138226.385 10 0 60272 27000.00000 0 2734615.525 16684298.706 19114566.765 10 0 60272 27900.00000 0 1094989.431 14854657.332 20720129.722 10 0 60272 28800.00000 0 -801182.422 13032785.983 21923766.063 10 0 60272 29700.00000 0 -2920325.668 11277736.757 22702108.869 10 0 60272 30600.00000 0 -5218129.829 9642428.401 23040025.197 10 0 60272 31500.00000 0 -7641157.853 8171543.583 22930910.232 10 0 60272 32400.00000 0 -10128846.284 6899787.332 22376818.376 10 0 60272 33300.00000 0 -12615814.352 5850578.622 21388428.553 10 0 60272 34200.00000 0 -15034387.355 5035229.153 19984843.993 10 0 60272 35100.00000 0 -17317230.548 4452643.139 18193229.686 10 0 60272 36000.00000 0 -19399984.860 4089550.346 16048293.644 10 0 60272 36900.00000 0 -21223795.222 3921262.333 13591621.151 10 0 60272 37800.00000 0 -22737626.320 3912919.946 10870873.969 10 0 60272 38700.00000 0 -23900269.062 4021179.357 7938869.332 10 0 60272 39600.00000 0 -24681953.549 4196265.308 4852556.120 10 0 60272 40500.00000 0 -25065500.586 4384304.430 1671907.927 10 0 60272 41400.00000 0 -25046963.035 4529839.438 -1541245.351 10 0 60272 42300.00000 0 -24635729.657 4578416.989 -4724424.205 10 0 60272 43200.00000 0 -23854086.885 4479138.687 -7815720.342 10 0 60272 44100.00000 0 -22736256.889 4187066.082 -10755007.145 10 0 60272 45000.00000 0 -21326952.572 3665376.626 -13485115.303 10 0 60272 45900.00000 0 -19679510.581 2887178.125 -15952950.039 10 0 60272 46800.00000 0 -17853681.249 1836903.763 -18110527.625 10 0 60272 47700.00000 0 -15913168.799 511227.614 -19915910.667 10 0 60272 48600.00000 0 -13923025.420 -1080539.029 -21334023.886 10 0 60272 49500.00000 0 -11947008.740 -2916588.240 -22337334.700 10 0 60272 50400.00000 0 -10045013.424 -4963287.976 -22906385.694 10 0 60272 51300.00000 0 -8270684.171 -7176359.183 -23030169.072 10 0 60272 52200.00000 0 -6669309.427 -9502509.045 -22706336.318 10 0 60272 53100.00000 0 -5276083.120 -11881452.771 -21941239.402 10 0 60272 54000.00000 0 -4114806.065 -14248240.145 -20749803.127 10 0 60272 54900.00000 0 -3197080.128 -16535790.361 -19155231.289 10 0 60272 55800.00000 0 -2522027.547 -18677529.857 -17188552.518 10 0 60272 56700.00000 0 -2076545.720 -20610023.582 -14888014.609 10 0 60272 57600.00000 0 -1836085.352 -22275490.312 -12298339.084 10 0 60272 58500.00000 0 -1765917.902 -23624097.349 -9469850.434 10 0 60272 59400.00000 0 -1822837.705 -24615939.128 -6457496.940 10 0 60272 60300.00000 0 -1957225.943 -25222617.398 -3319782.150 10 0 60272 61200.00000 0 -2115388.430 -25428357.285 -117627.916 10 0 60272 62100.00000 0 -2242067.673 -25230612.996 3086808.711 10 0 60272 63000.00000 0 -2283022.468 -24640138.318 6231341.600 10 0 60272 63900.00000 0 -2187565.493 -23680519.477 9254960.984 10 0 60272 64800.00000 0 -1910951.268 -22387190.439 12099014.796 10 0 60272 65700.00000 0 -1416513.314 -20805972.301 14708343.004 10 0 60272 66600.00000 0 -677459.933 -18991198.213 17032343.151 10 0 60272 67500.00000 0 321747.482 -17003502.341 19025946.823 10 0 60272 68400.00000 0 1584492.209 -14907365.161 20650488.692 10 0 60272 69300.00000 0 3101614.732 -12768517.229 21874451.878 10 0 60272 70200.00000 0 4851557.279 -10651309.184 22674075.849 10 0 60272 71100.00000 0 6801035.602 -8616156.852 23033815.662 10 0 60272 72000.00000 0 8906211.295 -6717167.086 22946643.999 10 0 60272 72900.00000 0 11114317.275 -5000042.332 22414190.339 10 0 60272 73800.00000 0 13365670.230 -3500350.320 21446714.404 10 0 60272 74700.00000 0 15595987.603 -2242230.242 20062913.985 10 0 60272 75600.00000 0 17738913.882 -1237588.665 18289570.207 10 0 60272 76500.00000 0 19728651.931 -485818.216 16161036.227 10 0 60272 77400.00000 0 21502590.272 25949.667 13718578.370 10 0 60272 78300.00000 0 23003816.950 322068.936 11009581.592 10 0 60272 79200.00000 0 24183414.897 437113.046 8086633.916 10 0 60272 80100.00000 0 25002442.370 414172.690 5006507.164 10 0 60272 81000.00000 0 25433514.955 302789.473 1829053.573 10 0 60272 81900.00000 0 25461922.089 156613.424 -1383960.142 10 0 60272 82800.00000 0 25086230.589 30884.201 -4570058.140 10 0 60272 83700.00000 0 24318349.248 -20156.440 -7667276.139 10 0 60272 84600.00000 0 23183051.394 54189.709 -10615372.894 10 0 60272 85500.00000 0 21716975.329 298682.474 -13357008.055 10 0 60273 0.00000 0 19967144.795 750001.803 -15838862.517 10 0 60273 900.00000 0 17989070.814 1434951.580 -18012680.223 10 0 60273 1800.00000 0 15844517.230 2369085.136 -19836207.471 10 0 60273 2700.00000 0 13599020.769 3555812.245 -21274015.847 10 0 60273 3600.00000 0 11319271.913 4986025.634 -22298189.502 10 0 60273 4500.00000 0 9070465.340 6638263.785 -22888865.122 10 0 60273 5400.00000 0 6913730.572 8479403.932 -23034614.301 10 0 60273 6300.00000 0 4903749.685 10465856.935 -22732661.381 10 0 60273 7200.00000 0 3086660.817 12545214.633 -21988932.962 10 0 60273 8100.00000 0 1498333.991 14658281.335 -20817938.505 10 0 60273 9000.00000 0 163090.012 16741405.089 -19242484.555 10 0 60273 9900.00000 0 -907085.400 18729011.705 -17293228.306 10 0 60273 10800.00000 0 -1712800.901 20556236.048 -15008079.160 10 0 60273 11700.00000 0 -2266982.956 22161540.936 -12431459.879 10 0 60273 12600.00000 0 -2594076.553 23489214.370 -9613441.637 10 0 60273 13500.00000 0 -2728758.293 24491640.839 -6608769.783 10 0 60273 14400.00000 0 -2714217.371 25131251.838 -3475799.241 10 0 60273 15300.00000 0 -2600078.104 25382074.064 -275360.423 10 0 60273 16200.00000 0 -2440052.666 25230810.667 2930422.155 10 0 60273 17100.00000 0 -2289423.994 24677410.482 6079335.419 10 0 60273 18000.00000 0 -2202465.813 23735101.633 9110283.784 10 0 60273 18900.00000 0 -2229909.300 22429888.367 11964472.244 10 0 60273 19800.00000 0 -2416563.696 20799532.379 14586543.583 10 0 60273 20700.00000 0 -2799191.625 18892061.351 16925647.806 10 0 60273 21600.00000 0 -3404729.000 16763867.030 18936423.478 10 0 60273 22500.00000 0 -4248924.858 14477472.021 20579872.471 10 0 60273 23400.00000 0 -5335458.876 12099058.038 21824111.766 10 0 60273 24300.00000 0 -6655574.336 9695858.007 22644988.395 10 0 60273 25200.00000 0 -8188242.928 7333519.780 23026546.197 10 0 60273 26100.00000 0 -9900855.627 5073550.248 22961335.697 10 0 60273 27000.00000 0 -11750412.154 2970945.187 22450561.326 10 0 60273 27900.00000 0 -13685160.737 1072102.420 21504062.965 10 0 60273 28800.00000 0 -15646621.167 -586895.767 20140131.804 10 0 60273 29700.00000 0 -17571907.994 -1981560.263 18385163.407 10 0 60273 30600.00000 0 -19396257.978 -3099780.278 16273153.859 10 0 60273 31500.00000 0 -21055656.976 -3942083.770 13845047.857 10 0 60273 32400.00000 0 -22489456.841 -4521362.845 11147950.492 10 0 60273 33300.00000 0 -23642872.869 -4862076.105 8234217.236 10 0 60273 34200.00000 0 -24469256.825 -4998961.989 5160439.330 10 0 60273 35100.00000 0 -24932049.593 -4975317.854 1986344.061 10 0 60273 36000.00000 0 -25006330.695 -4840918.077 -1226368.607 10 0 60273 36900.00000 0 -24679898.690 -4649659.918 -4415229.984 10 0 60273 37800.00000 0 -23953836.165 -4457037.632 -7518223.118 10 0 60273 38700.00000 0 -22842534.878 -4317552.769 -10474995.270 10 0 60273 39600.00000 0 -21373179.410 -4282171.371 -13228037.924 10 0 60273 40500.00000 0 -19584710.719 -4395936.810 -15723810.646 10 0 60273 41400.00000 0 -17526312.936 -4695840.317 -17913786.356 10 0 60273 42300.00000 0 -15255486.900 -5209040.219 -19755397.282 10 0 60273 43200.00000 0 -12835791.188 -5951505.978 -21212863.122 10 0 60273 44100.00000 0 -10334345.218 -6927144.987 -22257885.444 10 0 60273 45000.00000 0 -7819198.739 -8127449.643 -22870195.130 10 0 60273 45900.00000 0 -5356677.329 -9531680.098 -23037942.683 10 0 60273 46800.00000 0 -3008814.175 -11107575.662 -22757924.297 10 0 60273 47700.00000 0 -830974.585 -12812565.426 -22035639.733 10 0 60273 48600.00000 0 1130228.675 -14595427.914 -20885181.245 10 0 60273 49500.00000 0 2838643.447 -16398330.611 -19328955.970 10 0 60273 50400.00000 0 4269839.708 -18159164.353 -17397247.267 10 0 60273 51300.00000 0 5411873.358 -19814075.114 -15127623.577 10 0 60273 52200.00000 0 6265521.947 -21300087.435 -12564206.215 10 0 60273 53100.00000 0 6843984.054 -22557709.722 -9756810.307 10 0 60273 54000.00000 0 7172056.572 -23533412.346 -6759975.516 10 0 60273 54900.00000 0 7284825.968 -24181874.711 -3631905.434 10 0 60273 55800.00000 0 7225930.002 -24467907.042 -433336.391 10 0 60273 56700.00000 0 7045464.376 -24367966.288 2773642.164 10 0 60273 57600.00000 0 6797623.627 -23871202.575 5926792.606 10 0 60273 58500.00000 0 6538176.655 -22979992.292 8964935.772 10 0 60273 59400.00000 0 6321884.076 -21709935.500 11829135.779 10 0 60273 60300.00000 0 6199966.840 -20089317.700 14463840.083 10 0 60273 61200.00000 0 6217733.219 -18158058.404 16817952.792 10 0 60273 62100.00000 0 6412464.424 -15966190.217 18845820.850 10 0 60273 63000.00000 0 6811648.117 -13571931.557 20508114.458 10 0 60273 63900.00000 0 7431634.415 -11039432.825 21772585.311 10 0 60273 64800.00000 0 8276771.280 -8436289.182 22614688.573 10 0 60273 65700.00000 0 9339056.214 -5830922.476 23018057.146 10 0 60273 66600.00000 0 10598319.673 -3289940.214 22974819.412 10 0 60273 67500.00000 0 12022933.602 -875580.215 22485754.515 10 0 60273 68400.00000 0 13571016.616 1356653.964 21560282.030 10 0 60273 69300.00000 0 15192086.698 3360069.547 20216285.860 10 0 60273 70200.00000 0 16829093.547 5098487.550 18479775.117 10 0 60273 71100.00000 0 18420746.633 6547502.190 16384387.715 10 0 60273 72000.00000 0 19904042.397 7695244.812 13970745.408 10 0 60273 72900.00000 0 21216885.239 8542621.008 11285671.857 10 0 60273 73800.00000 0 22300692.576 9103011.544 8381288.168 10 0 60273 74700.00000 0 23102874.422 9401450.142 5314002.923 10 0 60273 75600.00000 0 23579082.749 9473313.285 2143416.135 10 0 60273 76500.00000 0 23695135.277 9362577.889 -1068841.530 10 0 60273 77400.00000 0 23428531.741 9119721.134 -4260311.218 10 0 60273 78300.00000 0 22769497.819 8799352.072 -7368926.071 10 0 60273 79200.00000 0 21721511.789 8457676.143 -10334224.588 10 0 60273 80100.00000 0 20301290.887 8149900.900 -13098532.723 10 0 60273 81000.00000 0 18538237.253 7927693.745 -15608090.977 10 0 60273 81900.00000 0 16473366.255 7836800.183 -17814103.971 10 0 60273 82800.00000 0 14157761.768 7914924.180 -19673691.699 10 0 60273 83700.00000 0 11650622.977 8189960.887 -21150723.842 10 0 60273 84600.00000 0 9016984.185 8678656.956 -22216521.054 10 0 60273 85500.00000 0 6325202.767 9385755.387 -22850409.879 10 0 60274 0.00000 0 3644320.028 10303661.220 -23040120.961 10 0 60274 900.00000 0 1041403.130 11412642.989 -22782023.312 10 0 60274 1800.00000 0 -1421018.207 12681560.463 -22081190.383 10 0 60274 2700.00000 0 -3687319.058 14069090.007 -20951297.381 10 0 60274 3600.00000 0 -5710849.576 15525395.195 -19414351.711 10 0 60274 4500.00000 0 -7455624.555 16994173.228 -17500262.092 10 0 60274 5400.00000 0 -8897562.957 18414991.410 -15246254.714 10 0 60274 6300.00000 0 -10025227.170 19725815.797 -12696147.711 10 0 60274 7200.00000 0 -10840032.618 20865625.933 -9899498.008 10 0 60274 8100.00000 0 -11355920.572 21777005.912 -6910637.093 10 0 60274 9000.00000 0 -11598509.462 22408602.903 -3787614.451 10 0 60274 9900.00000 0 -11603761.812 22717349.740 -591069.345 10 0 60274 10800.00000 0 -11416224.265 22670358.052 2616946.973 10 0 60274 11700.00000 0 -11086916.001 22246402.256 5774175.542 10 0 60274 12600.00000 0 -10670955.528 21436931.895 8819356.854 10 0 60274 13500.00000 0 -10225026.693 20246569.628 11693417.339 10 0 60274 14400.00000 0 -9804791.293 18693073.742 14340612.213 10 0 60274 15300.00000 0 -9462357.720 16806766.433 16709602.628 10 0 60274 16200.00000 0 -9243912.461 14629451.358 18754446.626 10 0 60274 17100.00000 0 -9187614.271 12212865.082 20435485.224 10 0 60274 18000.00000 0 -9321839.663 9616726.316 21720107.005 10 0 60274 18900.00000 0 -9663853.549 6906463.327 22583377.097 10 0 60274 19800.00000 0 -10218961.126 4150713.007 23008518.902 10 0 60274 20700.00000 0 -10980177.008 1418694.467 22987239.650 10 0 60274 21600.00000 0 -11928426.122 -1222434.963 22519893.697 10 0 60274 22500.00000 0 -13033268.804 -3710132.718 21615480.276 10 0 60274 23400.00000 0 -14254120.704 -5988827.989 20291475.414 10 0 60274 24300.00000 0 -15541917.429 -8011985.811 18573500.610 10 0 60274 25200.00000 0 -16841155.182 -9743793.186 16494833.904 10 0 60274 26100.00000 0 -18092222.665 -11160397.707 14095771.882 10 0 60274 27000.00000 0 -19233926.977 -12250647.582 11422854.124 10 0 60274 27900.00000 0 -20206107.702 -13016302.575 8527964.348 10 0 60274 28800.00000 0 -20952229.164 -13471707.537 5467325.193 10 0 60274 29700.00000 0 -21421841.344 -13642942.694 2300405.939 10 0 60274 30600.00000 0 -21572805.056 -13566487.042 -911235.579 10 0 60274 31500.00000 0 -21373186.634 -13287451.852 -4105153.906 10 0 60274 32400.00000 0 -20802741.165 -12857459.635 -7219235.774 10 0 60274 33300.00000 0 -19853920.595 -12332259.068 -10192914.327 10 0 60274 34200.00000 0 -18532363.148 -11769177.668 -12968353.230 10 0 60274 35100.00000 0 -16856842.485 -11224520.870 -15491576.933 10 0 60274 36000.00000 0 -14858677.903 -10751028.376 -17713524.471 10 0 60274 36900.00000 0 -12580629.709 -10395496.058 -19591005.919 10 0 60274 37800.00000 0 -10075325.546 -10196664.464 -21087542.782 10 0 60274 38700.00000 0 -7403283.115 -10183463.511 -22174076.099 10 0 60274 39600.00000 0 -4630611.558 -10373687.627 -22829528.790 10 0 60274 40500.00000 0 -1826487.015 -10773157.312 -23041211.749 10 0 60274 41400.00000 0 939492.930 -11375402.445 -22805066.307 10 0 60274 42300.00000 0 3599966.303 -12161880.626 -22125738.750 10 0 60274 43200.00000 0 6092365.450 -13102721.325 -21016485.885 10 0 60274 44100.00000 0 8361271.826 -14157964.508 -19498913.667 10 0 60274 45000.00000 0 10360469.858 -15279241.673 -17602554.158 10 0 60274 45900.00000 0 12054615.495 -16411828.568 -15364289.004 10 0 60274 46800.00000 0 13420451.234 -17496983.335 -12827630.625 10 0 60274 47700.00000 0 14447518.232 -18474471.653 -10041875.004 10 0 60274 48600.00000 0 15138337.256 -19285172.624 -7061142.529 10 0 60274 49500.00000 0 15508052.369 -19873655.590 -3943325.514 10 0 60274 50400.00000 0 15583553.783 -20190619.289 -748963.026 10 0 60274 51300.00000 0 15402118.104 -20195090.439 2459935.013 10 0 60274 52200.00000 0 15009624.434 -19856289.001 5621091.347 10 0 60274 53100.00000 0 14458422.498 -19155081.349 8673168.990 10 0 60274 54000.00000 0 13804943.424 -18084959.912 11556959.320 10 0 60274 54900.00000 0 13107154.488 -16652507.772 14216527.640 10 0 60274 55800.00000 0 12421965.360 -14877328.220 16600294.132 10 0 60274 56700.00000 0 11802695.282 -12791441.651 18662029.570 10 0 60274 57600.00000 0 11296707.681 -10438174.239 20361747.032 10 0 60274 58500.00000 0 10943311.614 -7870583.961 21666472.868 10 0 60274 59400.00000 0 10772018.034 -5149488.493 22550882.683 10 0 60274 60300.00000 0 10801224.004 -2341175.900 22997790.543 10 0 60274 61200.00000 0 11037380.099 485107.935 22998482.367 10 0 60274 62100.00000 0 11474676.130 3259792.106 22552887.264 10 0 60274 63000.00000 0 12095258.765 5915625.657 21669583.408 10 0 60274 63900.00000 0 12869972.541 8390226.090 20365637.983 10 0 60274 64800.00000 0 13759593.891 10628426.585 18666283.709 10 0 60274 65700.00000 0 14716507.209 12584325.260 16604437.379 10 0 60274 66600.00000 0 15686753.270 14222951.799 14220068.858 10 0 60274 67500.00000 0 16612364.483 15521482.519 11559431.896 10 0 60274 68400.00000 0 17433889.075 16469953.537 8674170.891 10 0 60274 69300.00000 0 18092997.885 17071442.522 5620320.426 10 0 60274 70200.00000 0 18535063.602 17341711.778 2457216.763 10 0 60274 71100.00000 0 18711602.995 17308328.109 -753657.507 10 0 60274 72000.00000 0 18582478.152 17009297.004 -3949872.805 10 0 60274 72900.00000 0 18117762.713 16491269.438 -7069271.952 10 0 60274 73800.00000 0 17299193.106 15807397.668 -10051185.165 10 0 60274 74700.00000 0 16121142.331 15014931.474 -12837616.143 10 0 60274 75600.00000 0 14591074.088 14172657.227 -15374375.449 10 0 60274 76500.00000 0 12729457.015 13338288.794 -17612138.531 10 0 60274 77400.00000 0 10569141.768 12565921.162 -19507407.387 10 0 60274 78300.00000 0 8154226.237 11903654.795 -21023357.046 10 0 60274 79200.00000 0 5538455.790 11391491.258 -22130550.502 10 0 60274 80100.00000 0 2783224.839 11059588.917 -22807508.480 10 0 60274 81000.00000 0 -44737.374 10926952.109 -23041123.403 10 0 60274 81900.00000 0 -2875900.870 11000608.723 -22826909.983 10 0 60274 82800.00000 0 -5640583.934 11275310.444 -22169088.046 10 0 60274 83700.00000 0 -8271607.482 11733767.888 -21080496.347 10 0 60274 84600.00000 0 -10706845.138 12347410.328 -19582339.315 10 0 60274 85500.00000 0 -12891563.771 13077637.688 -17703771.805 10 0 60275 0.00000 0 -14780457.902 13877511.738 -15481330.138 10 0 60275 900.00000 0 -16339295.278 14693815.455 -12958219.198 10 0 60275 1800.00000 0 -17546103.685 15469392.513 -10183472.425 10 0 60275 2700.00000 0 -18391854.048 16145669.536 -7210997.010 10 0 60275 3600.00000 0 -18880610.005 16665253.540 -4098525.760 10 0 60275 4500.00000 0 -19029140.045 16974495.197 -906494.982 10 0 60275 5400.00000 0 -18866009.638 17025909.550 2303129.442 10 0 60275 6300.00000 0 -18430192.719 16780351.793 5468054.836 10 0 60275 7200.00000 0 -17769261.971 16208856.103 8526869.714 10 0 60275 8100.00000 0 -16937234.975 15294059.689 11420233.452 10 0 60275 9000.00000 0 -15992167.509 14031151.684 14092024.525 10 0 60275 9900.00000 0 -14993595.707 12428306.451 16490425.183 10 0 60275 10800.00000 0 -13999934.834 10506582.435 18568921.859 10 0 60275 11700.00000 0 -13065943.972 8299289.950 20287202.427 10 0 60275 12600.00000 0 -12240362.909 5850853.328 21611933.486 10 0 60275 13500.00000 0 -11563820.086 3215213.766 22517403.251 10 0 60275 14400.00000 0 -11067099.008 453838.076 22986018.204 10 0 60275 15300.00000 0 -10769835.478 -2366585.163 23008644.258 10 0 60275 16200.00000 0 -10679700.098 -5176667.736 22584786.107 10 0 60275 17100.00000 0 -10792100.239 -7906958.864 21722601.182 10 0 60275 18000.00000 0 -11090414.162 -10490588.928 20438747.631 10 0 60275 18900.00000 0 -11546747.782 -12865811.194 18758068.669 10 0 60275 19800.00000 0 -12123182.751 -14978336.772 16713118.614 10 0 60275 20700.00000 0 -12773463.896 -16783366.326 14343538.908 10 0 60275 21600.00000 0 -13445055.450 -18247234.341 11695295.351 10 0 60275 22500.00000 0 -14081479.770 -19348597.640 8819790.548 10 0 60275 23400.00000 0 -14624839.972 -20079118.627 5772868.269 10 0 60275 24300.00000 0 -15018419.788 -20443614.809 2613728.797 10 0 60275 25200.00000 0 -15209250.314 -20459668.568 -596223.640 10 0 60275 26100.00000 0 -15150534.340 -20156713.884 -3794578.556 10 0 60275 27000.00000 0 -14803824.772 -19574638.940 -6919138.147 10 0 60275 27900.00000 0 -14140863.834 -18761964.093 -9909133.004 10 0 60275 28800.00000 0 -13145004.126 -17773672.768 -12706410.134 10 0 60275 29700.00000 0 -11812150.236 -16668787.567 -15256569.395 10 0 60275 30600.00000 0 -10151180.008 -15507794.602 -17510025.651 10 0 60275 31500.00000 0 -8183826.624 -14350025.338 -19422975.555 10 0 60275 32400.00000 0 -5944025.436 -13251106.835 -20958250.031 10 0 60275 33300.00000 0 -3476752.049 -12260588.068 -22086035.947 10 0 60275 34200.00000 0 -836399.534 -11419842.308 -22784453.258 10 0 60275 35100.00000 0 1915238.133 -10760333.597 -23039976.803 10 0 60275 36000.00000 0 4711292.965 -10302319.799 -22847695.067 10 0 60275 36900.00000 0 7482363.831 -10054046.153 -22211401.310 10 0 60275 37800.00000 0 10159166.194 -10011462.522 -21143515.703 10 0 60275 38700.00000 0 12675181.157 -10158475.482 -19664840.218 10 0 60275 39600.00000 0 14969194.286 -10467723.906 -17804151.191 10 0 60275 40500.00000 0 16987619.346 -10901844.719 -15597637.500 10 0 60275 41400.00000 0 18686511.028 -11415174.927 -13088195.223 10 0 60275 42300.00000 0 20033183.642 -11955817.648 -10324592.421 10 0 60275 43200.00000 0 21007369.259 -12467984.584 -7360520.260 10 0 60275 44100.00000 0 21601867.938 -12894515.720 -4253548.874 10 0 60275 45000.00000 0 21822663.952 -13179469.489 -1064008.416 10 0 60275 45900.00000 0 21688504.283 -13270673.758 2146182.830 10 0 60275 46800.00000 0 21229958.187 -13122129.563 5314720.319 10 0 60275 47700.00000 0 20487998.304 -12696165.792 8380121.516 10 0 60275 48600.00000 0 19512163.861 -11965253.554 11282917.009 10 0 60275 49500.00000 0 18358383.799 -10913403.292 13966801.345 10 0 60275 50400.00000 0 17086551.785 -9537085.282 16379721.359 10 0 60275 51300.00000 0 15757955.163 -7845634.145 18474881.243 10 0 60275 52200.00000 0 14432665.728 -5861119.500 20211645.347 10 0 60275 53100.00000 0 13167001.544 -3617687.176 21556321.765 10 0 60275 54000.00000 0 12011165.765 -1160397.264 22482812.167 10 0 60275 54900.00000 0 11007160.835 1456393.890 22973115.886 10 0 60275 55800.00000 0 10187064.865 4171041.821 23017678.886 10 0 60275 56700.00000 0 9571741.825 6916930.172 22615581.130 10 0 60275 57600.00000 0 9170039.147 9625000.257 21774558.644 10 0 60275 58500.00000 0 8978506.094 12226390.177 20510859.556 10 0 60275 59400.00000 0 8981644.623 14655075.044 18848936.304 10 0 60275 60300.00000 0 9152682.269 16850399.480 16820979.194 10 0 60275 61200.00000 0 9454834.730 18759397.692 14466299.480 10 0 60275 62100.00000 0 9843005.240 20338804.886 11830573.035 10 0 60275 63000.00000 0 10265849.260 21556676.286 8964958.496 10 0 60275 63900.00000 0 10668117.388 22393546.130 5925106.480 10 0 60275 64800.00000 0 10993177.321 22843078.087 2770078.810 10 0 60275 65700.00000 0 11185607.794 22912179.805 -438801.222 10 0 60275 66600.00000 0 11193754.066 22620576.827 -3639144.840 10 0 60275 67500.00000 0 10972135.839 21999864.027 -6768716.179 10 0 60275 68400.00000 0 10483604.611 21092074.823 -9766648.692 10 0 60275 69300.00000 0 9701157.977 19947828.973 -12574635.013 10 0 60275 70200.00000 0 8609332.876 18624137.583 -15138066.439 10 0 60275 71100.00000 0 7205117.709 17181958.456 -17407099.205 10 0 60275 72000.00000 0 5498343.651 15683605.347 -19337626.405 10 0 60275 72900.00000 0 3511537.572 14190120.638 -20892136.478 10 0 60275 73800.00000 0 1279241.676 12758722.226 -22040441.655 10 0 60275 74700.00000 0 -1153172.490 11440431.977 -22760262.454 10 0 60275 75600.00000 0 -3731146.906 10277985.125 -23037657.293 10 0 60275 76500.00000 0 -6392968.950 9304107.863 -22867289.354 10 0 60275 77400.00000 0 -9072108.190 8540234.714 -22252525.957 10 0 60275 78300.00000 0 -11699761.405 7995718.582 -21205368.943 10 0 60275 79200.00000 0 -14207500.480 7667565.633 -19746217.655 10 0 60275 80100.00000 0 -16529913.560 7540705.072 -17903469.300 10 0 60275 81000.00000 0 -18607130.124 7588781.423 -15712964.496 10 0 60275 81900.00000 0 -20387125.445 7775435.004 -13217288.696 10 0 60275 82800.00000 0 -21827709.039 8056015.777 -10464943.041 10 0 60275 83700.00000 0 -22898114.828 8379657.553 -7509400.673 10 0 60275 84600.00000 0 -23580127.395 8691624.364 -4408066.849 10 0 60275 85500.00000 0 -23868698.028 8935829.365 -1221163.177 99